Location: Rumah Apan
(2.7833°N, 113.9500°E)
Time: 23:08:49
(UTC+00:00)

Maqsat-H - Pass Details

Date: 25 July 2021
Orbit: 575 x 26397 km, 7.5° (Epoch: 22 September)

Event Time Altitude Azimuth Distance (km) Brightness Sun altitude
Rises 11:09:24 0° 257° (WSW) 6,462 7.8 -8.1°
Reaches altitude 10° 11:15:30 10° 251° (WSW) 3,703 6.3 -9.6°
Maximum altitude 11:22:03 40° 181° (S) 1,054 2.6 -11.1°
Enters shadow 11:24:33 17° 115° (ESE) 1,530 2.9 -11.7°
